User: anonymous   Login
Location: Unspecified
(0.0000°N, 0.0000°E)
Time: 23:09:18
(UTC+02:00)
Language:

YAOGAN 3 - Orbit

View from above orbital plane
View from above orbital plane
View from above satellite
View from above satellite

Ground track
Ground track

The orbit data is extracted from the following two-line orbital elements,

1 32289U 07055A   15182.38324242  .00000162  00000-0  27994-4 0  9990
2 32289 097.9628 176.5473 0002043 092.6274 267.5172 14.80491284412669
Epoch (UTC): 01 July 2015 09:11:52
Eccentricity: 0.0002043
inclination: 97.9628°
perigee height: 626 km
apogee height: 629 km
right ascension of ascending node: 176.5473°
argument of perigee: 92.6274°
revolutions per day: 14.80491284
mean anomaly at epoch: 267.5172°
orbit number at epoch: 41266

The dashed part of the orbit path shows where the satellite is in the earth's shadow,  

DLR